Karlovy Vary, Czech Republic

7:45 AM CEST on May 28, 2018 (GMT +0200)
Karlovy Vary

Weather History for LKKV - November, 2012

Change the Weather History Date:

Friday, November 30, 2012

  Actual Average (EDQM) Record (EDQM)
Temperature  
Mean Temperature 29 °F -  
Max Temperature 30 °F 35 °F 45 °F (2015)
Min Temperature 26 °F 30 °F 19 °F (2010)
Degree Days  
Heating Degree Days 36    
Moisture  
Dew Point 28 °F    
Average Humidity 95    
Maximum Humidity 100    
Minimum Humidity 86    
Precipitation  
Precipitation 0.00 in - - ()
Sea Level Pressure  
Sea Level Pressure 29.65 in    
Wind  
Wind Speed 6 mph ()    
Max Wind Speed 9 mph    
Max Gust Speed -    
Visibility 6.1 miles    
Events Snow    
Averages and records for this station are not official NWS values.
T = Trace of Precipitation, MM = Missing Value Source: Averaged Metar Reports

Daily Weather History Graph

Daily Weather History Graph

Search for Another Location

Airport or City:

Astronomy

Nov. 30, 2012 Rise Set
Actual Time 7:44 AM CET 4:08 PM CET
Civil Twilight 7:07 AM CET 4:46 PM CET
Nautical Twilight 6:26 AM CET 5:27 PM CET
Astronomical Twilight 5:47 AM CET 6:06 PM CET
Moon 5:49 PM CET (11/30) 9:04 AM CET (11/30)
Length of Visible Light 9h 39m
Length of Day
8h 24m
Full, 97% of the Moon is Illuminated
Nov 30
Full
Dec 6
Last Quarter
Dec 13
New
Dec 20
First Quarter
Dec 28
Full

Hourly Weather History & Observations

Time (CET) Temp. Windchill Dew Point Humidity Pressure Visibility Wind Dir Wind Speed Gust Speed Precip Events Conditions
12:00 AM 30.2 °F 21.9 °F 28.4 °F 93% 29.50 in 6.2 mi West 9.2 mph - N/A   Mostly Cloudy
1:00 AM 28.4 °F 20.4 °F 28.4 °F 100% 29.50 in 6.2 mi West 8.1 mph - N/A   Mostly Cloudy
2:00 AM 30.2 °F 22.6 °F 28.4 °F 93% 29.50 in 6.2 mi West 8.1 mph - N/A   Mostly Cloudy
3:00 AM 30.2 °F 21.9 °F 28.4 °F 93% 29.50 in 6.2 mi West 9.2 mph - N/A   Mostly Cloudy
4:00 AM 28.4 °F 21.2 °F 28.4 °F 100% 29.53 in 6.2 mi West 6.9 mph - N/A   Mostly Cloudy
5:00 AM 28.4 °F 22.2 °F 26.6 °F 93% 29.53 in 6.2 mi WSW 5.8 mph - N/A   Mostly Cloudy
6:00 AM 28.4 °F 23.3 °F 28.4 °F 100% 29.56 in 6.2 mi WSW 4.6 mph - N/A   Mostly Cloudy
7:00 AM 28.4 °F 21.2 °F 28.4 °F 100% 29.56 in 6.2 mi WSW 6.9 mph - N/A   Mostly Cloudy
7:30 AM 28.4 °F 21.2 °F 28.4 °F 100% 29.56 in 6.2 mi WSW 6.9 mph - N/A   Partly Cloudy
8:00 AM 28.4 °F 22.2 °F 26.6 °F 93% 29.59 in 6.2 mi WSW 5.8 mph - N/A   Partly Cloudy
8:30 AM 28.4 °F 21.2 °F 26.6 °F 93% 29.59 in 6.2 mi WSW 6.9 mph - N/A   Scattered Clouds
9:00 AM 28.4 °F 22.2 °F 26.6 °F 93% 29.59 in 6.2 mi WSW 5.8 mph - N/A   Mostly Cloudy
9:30 AM 28.4 °F 21.2 °F 28.4 °F 100% 29.62 in 6.2 mi WSW 6.9 mph - N/A   Scattered Clouds
10:00 AM 30.2 °F 24.3 °F 28.4 °F 93% 29.62 in 6.2 mi WSW 5.8 mph - N/A   Partly Cloudy
10:30 AM 30.2 °F 23.4 °F 28.4 °F 93% 29.65 in 6.2 mi WSW 6.9 mph - N/A   Mostly Cloudy
11:00 AM 30.2 °F 22.6 °F 28.4 °F 93% 29.65 in 6.2 mi WSW 8.1 mph - N/A   Scattered Clouds
11:30 AM 30.2 °F 22.6 °F 28.4 °F 93% 29.65 in 6.2 mi WSW 8.1 mph - N/A   Partly Cloudy
11:49 AM 30.2 °F 23.4 °F 28.4 °F 93% 29.65 in 6.2 mi WSW 6.9 mph - N/A Snow Light Snow
12:00 PM 30.2 °F 23.4 °F 28.4 °F 93% 29.65 in 6.2 mi WSW 6.9 mph - N/A Snow Light Snow
12:30 PM 30.2 °F 23.4 °F 28.4 °F 93% 29.65 in 3.1 mi WSW 6.9 mph - N/A Snow Light Snow
12:42 PM 30.2 °F 23.4 °F 28.4 °F 93% 29.65 in 6.2 mi WSW 6.9 mph - N/A Snow Light Snow
1:00 PM 30.2 °F 24.3 °F 28.4 °F 93% 29.65 in 6.2 mi WSW 5.8 mph - N/A Snow Light Snow
1:30 PM 30.2 °F 22.6 °F 28.4 °F 93% 29.65 in 6.2 mi WSW 8.1 mph - N/A Snow Light Snow
2:00 PM 30.2 °F 23.4 °F 26.6 °F 86% 29.68 in 6.2 mi West 6.9 mph - N/A Snow Light Snow
2:30 PM 30.2 °F 23.4 °F 26.6 °F 86% 29.68 in 6.2 mi WSW 6.9 mph - N/A Snow Light Snow
3:00 PM 30.2 °F 23.4 °F 26.6 °F 86% 29.68 in 6.2 mi WSW 6.9 mph - N/A   Mostly Cloudy
3:30 PM 28.4 °F 21.2 °F 28.4 °F 100% 29.68 in 6.2 mi WSW 6.9 mph - N/A Snow Light Snow
4:00 PM 28.4 °F 23.3 °F 28.4 °F 100% 29.71 in 6.2 mi WSW 4.6 mph - N/A Snow Light Snow
4:30 PM 28.4 °F 22.2 °F 26.6 °F 93% 29.71 in 6.2 mi WSW 5.8 mph - N/A Snow Light Snow
5:00 PM 28.4 °F 22.2 °F 28.4 °F 100% 29.71 in 6.2 mi WSW 5.8 mph - N/A Snow Light Snow
5:30 PM 28.4 °F 22.2 °F 28.4 °F 100% 29.74 in 6.2 mi WSW 5.8 mph - N/A Snow Light Snow
6:00 PM 28.4 °F 20.4 °F 28.4 °F 100% 29.74 in 6.2 mi WSW 8.1 mph - N/A Snow Light Snow
6:30 PM 28.4 °F 21.2 °F 28.4 °F 100% 29.74 in 6.2 mi WSW 6.9 mph - N/A Snow Light Snow
7:00 PM 28.4 °F 21.2 °F 28.4 °F 100% 29.74 in 6.2 mi WSW 6.9 mph - N/A Snow Light Snow
7:30 PM 28.4 °F 22.2 °F 28.4 °F 100% 29.77 in 6.2 mi WNW 5.8 mph - N/A Snow Light Snow
8:00 PM 28.4 °F 23.3 °F 28.4 °F 100% 29.77 in 6.2 mi West 4.6 mph - N/A   Mostly Cloudy
9:00 PM 28.4 °F - 26.6 °F 93% 29.77 in 6.2 mi Variable 2.3 mph - N/A   Mostly Cloudy
10:00 PM 28.4 °F 23.3 °F 26.6 °F 93% 29.80 in 6.2 mi West 4.6 mph - N/A   Mostly Cloudy
11:00 PM 26.6 °F 22.6 °F 24.8 °F 93% 29.80 in 6.2 mi SW 3.5 mph - N/A   Mostly Cloudy